Regional Weather Roundup
Issued by NWS

Home | Current Version | Previous Version | Text Only | Print | Product List | Glossary On
Versions: 1 2 3 4 5 6 7 8 9 10 11 12 13 14 15 16 17 18 19 20 21 22 23 24 25 26 27 28 29 30 31 32 33 34 35 36 37 38 39 40 41 42 43 44 45 46 47 48 49 50
000
ASUS43 KOAX 280202
RWRNE

WEATHER ROUNDUP FOR NEBRASKA
NATIONAL WEATHER SERVICE OMAHA NE
900 PM CDT MON APR 27 2015

NOTES: SATELLITE DATA IS BEING USED TO AUGMENT CLOUD COVER ABOVE
       12000 FEET.
       "FAIR" INDICATES FEW OR NO CLOUDS BELOW 12,000 FEET WITH NO
       SIGNIFICANT WEATHER AND/OR OBSTRUCTIONS TO VISIBILITY.

  * THESE STATIONS DO NOT REPORT WEATHER SUCH AS RAIN...SNOW OR FOG.

NEZ001>004-019>022-054>056-280300-
NEBRASKA PANHANDLE

CITY           SKY/WX    TMP DP  RH WIND       PRES   REMARKS
SCOTTSBLUFF    CLOUDY    50  42  74 N10       30.28R
ALLIANCE       CLOUDY    50  42  74 N16       30.27R
CHADRON        MOCLDY    47  41  80 N7        30.30R
KIMBALL        CLOUDY    48  42  77 N9        30.27R
SIDNEY         MOCLDY    48  40  73 N7        30.26R
$$

NEZ057>060-069>072-079>082-280300-
SOUTHWEST NEBRASKA

CITY           SKY/WX    TMP DP  RH WIND       PRES   REMARKS
NORTH PLATTE   MOCLDY    53  35  50 NE6       30.20R
IMPERIAL       MOCLDY    55  31  39 CALM      30.21R
LEXINGTON      MOCLDY    53  35  51 NE7       30.18R
MCCOOK         MOCLDY    54  36  50 N6        30.18R
OGALLALA       MOCLDY    56  37  50 NE5       30.22R
$$

NEZ005>010-023>029-035>040-094-280300-
NORTH CENTRAL NEBRASKA

CITY           SKY/WX    TMP DP  RH WIND       PRES   REMARKS
VALENTINE      CLEAR     55  40  56 N15G22    30.24R
AINSWORTH      PTCLDY    57  41  53 N17       30.22R
BROKEN BOW     MOCLDY    54  31  41 NE6       30.19R
O`NEILL        MOCLDY    59  32  36 NE3       30.19R
ORD            MOCLDY    55  31  39 N6        30.17R
$$

NEZ041-046>049-061>064-073>077-083>087-280300-
SOUTH CENTRAL NEBRASKA

CITY           SKY/WX    TMP DP  RH WIND       PRES   REMARKS
GRAND ISLAND   MOCLDY    55  33  43 E5        30.17R
AURORA         MOCLDY    56  35  45 E6        30.16R
HASTINGS       CLOUDY    56  38  50 CALM      30.16R
HEBRON         MOCLDY    56  32  39 NE5       30.15R
HOLDREGE       MOCLDY    53  34  48 E6        30.17R
KEARNEY *      CLOUDY    55  36  47 E5        30.17R
$$

NEZ011>018-030>034-042>045-280300-
NORTHEAST NEBRASKA

CITY           SKY/WX    TMP DP  RH WIND       PRES   REMARKS
NORFOLK        PTCLDY    57  28  33 CALM      30.15R
ALBION         MOCLDY    55  30  38 N7        30.17R
BLAIR          CLEAR     60  28  30 NE5       30.13R
COLUMBUS *     MOCLDY    54  30  40 N3        30.17R
FREMONT        PTCLDY    62  29  29 CALM      30.15R
TEKAMAH        PTCLDY    57  31  37 NE6       30.14R
WAYNE          PTCLDY    54  28  36 CALM      30.16R
$$

NEZ050>053-065>068-078-088>093-280300-
SOUTHEAST NEBRASKA

CITY           SKY/WX    TMP DP  RH WIND       PRES   REMARKS
LINCOLN        MOCLDY    54  33  45 NE5       30.15R
OMAHA EPPLEY   MOCLDY    62  33  33 NE8       30.13R
BEATRICE       MOCLDY    57  34  42 N3        30.13R
FALLS CITY     MOCLDY    59  33  37 CALM      30.11R
NEBRASKA CITY  PTCLDY    57  25  29 NE3       30.13R
PLATTSMOUTH    CLEAR     58  27  30 NE6       30.13R
$$

NEZ044-045-051>053-067-280300-
OMAHA AREA

CITY           SKY/WX    TMP DP  RH WIND       PRES   REMARKS
OMAHA EPPLEY   MOCLDY    62  33  33 NE8       30.13R
BLAIR          CLEAR     60  28  30 NE5       30.13R
FREMONT        PTCLDY    62  29  29 CALM      30.15R
MILLARD        CLEAR     60  34  37 CALM      30.13R
OFFUTT AFB     CLEAR     58  33  39 N3        30.12R
PLATTSMOUTH    CLEAR     58  27  30 NE6       30.13R
WAHOO          FAIR      57  31  37 NE6       30.14R
$$


USA.gov is the U.S. government's official web portal to all federal, state and local government web resources and services.